NOSS 3-2 (A) - Orbit

View from above orbital plane
View from above orbital plane
View from above satellite
View from above satellite

Ground track
Ground track

The orbit data is extracted from the following two-line orbital elements,

1 28095U 03054A   13140.36403237 0.00000000  00000-0  00000-0 0    06
2 28095  63.4310 149.7269 0171000 359.4200   0.5799 13.40653888    09
Epoch (UTC): 20 May 2013 08:44:12
Eccentricity: 0.0171000
inclination: 63.4310°
perigee height: 979 km
apogee height: 1235 km
right ascension of ascending node: 149.7269°
argument of perigee: 359.4200°
revolutions per day: 13.40653888
mean anomaly at epoch: 0.5799°
orbit number at epoch: 0

The dashed part of the orbit path shows where the satellite is in the earth's shadow,  

Developed and maintained by Chris Peat, Heavens-Above GmbH. Please read the updated FAQ before sending e-mail. Imprint. DLR